Regional Weather Roundup
Issued by NWS

Home | Current Version | Previous Version | Graphics & Text | Print | Product List | Glossary On
Versions: 1 2 3 4 5 6 7 8 9 10 11 12 13 14 15 16 17 18 19 20 21 22 23 24 25 26 27
000
ASUS45 KTFX 280710
RWRMT
MONTANA REGIONAL WEATHER ROUNDUP
NATIONAL WEATHER SERVICE GREAT FALLS MT
100 AM MDT SAT MAY 28 2016

NOTE: "FAIR" INDICATES FEW OR NO CLOUDS BELOW 12000 FEET WITH NO
SIGNIFICANT WEATHER AND/OR OBSTRUCTIONS TO VISIBILITY.

MTZ001>007-043-280800-
WEST OF THE DIVIDE

CITY           SKY/WX    TMP DP  RH WIND       PRES   REMARKS
KALISPELL      MOCLDY    44  39  82 W5        29.99S
MISSOULA       MOCLDY    44  36  73 CALM      30.03S
BUTTE          CLOUDY    39  36  89 CALM      30.02R
MULLAN PASS    PTCLDY    34  26  72 VRB7      30.02S WCI  28
ANACONDA         N/A     37  34  87 CALM      30.02R
DEER LODGE       N/A     45  34  65 CALM      30.03R
EUREKA           N/A     48  37  66 S6        30.00S
HAMILTON         N/A     45  34  65 E3        30.02S
LIBBY            N/A     37  36  93 CALM      30.01S
$$

MTZ008-052>055-280800-
SOUTHWEST MONTANA

CITY           SKY/WX    TMP DP  RH WIND       PRES   REMARKS
BOZEMAN        MOCLDY    46  44  93 SE5       29.99S
DILLON         CLOUDY    43  39  86 CALM      30.00S
W YELLOWSTONE  LGT RAIN  39  39 100 CALM      30.01S
ENNIS          CLOUDY    43  41  93 S7        30.05F
$$

MTZ009-010-012-014-046-048-049-054-280800-
EAST SLOPES AND CENTRAL MONTANA

CITY           SKY/WX    TMP DP  RH WIND       PRES   REMARKS
CUT BANK       CLEAR     43  32  65 W14       29.92S
GREAT FALLS    CLOUDY    49  43  80 W6        29.94S
MALMSTROM AFB  CLOUDY    49  45  85 W1        29.93F
HELENA         CLOUDY    50  34  54 W10       29.97R
CHOTEAU          N/A     46  34  61 W5        29.94S
$$

MTZ011-013-016-021-045-047-050-051-280800-
NORTH CENTRAL MONTANA

CITY           SKY/WX    TMP DP  RH WIND       PRES   REMARKS
HAVRE          LGT RAIN  53  49  86 SW8       29.87S
LEWISTOWN      LGT RAIN  49  45  86 W9        29.93S
N BAR RANCH    CLOUDY    46  43  87 VRB7      29.93F
CHINOOK          N/A     55  52  88 CALM      29.87S
$$

MTZ017>020-022>027-061-062-280800-
NORTHEAST MONTANA

CITY           SKY/WX    TMP DP  RH WIND       PRES   REMARKS
GLASGOW        CLOUDY    55  49  80 E10       29.83S
JORDAN           N/A     54  49  83 E3        29.84S
SIDNEY         CLEAR     52  50  93 N6        29.85S
WOLF POINT     PTCLDY    51  48  89 NE3       29.86S
PLENTYWOOD       N/A     54  54 100 E9        29.88S
POPLAR           N/A     54  52  94 N6        29.86S
$$

MTZ028>42-056>058-280800-
SOUTHCENTRAL AND SOUTHEAST MONTANA

CITY           SKY/WX    TMP DP  RH WIND       PRES   REMARKS
BAKER          PTCLDY    45  41  86 CALM      29.86S
BILLINGS       CLOUDY    51  47  86 W9        29.92R
LIVINGSTON     CLOUDY    46  44  93 W6        29.96F
MILES CITY     CLOUDY    52  48  86 CALM      29.83F
FORSYTH          N/A     55  50  82 CALM      29.84S
$$

REGIONAL REPORTS...DAKOTAS

CITY           SKY/WX    TMP DP  RH WIND       PRES   REMARKS
WILLISTON      CLOUDY    58  54  86 E3        29.87R
MINOT          CLOUDY    57  54  89 NE12      29.88R
DICKINSON      PTCLDY    48  45  89 NE5       29.85R
BEACH          CLOUDY    48  48 100 CALM      29.89S
CROSBY         CLOUDY    54  54 100 E13       29.91F FOG
WATFORD CITY   CLOUDY    55  55 100 E10       29.87R
BISMARCK       CLOUDY    56  50  80 CALM      29.84S
GRAND FORKS    CLOUDY    62  58  86 S5        29.81R
FARGO          CLOUDY    61  57  87 E3        29.79F
BUFFALO SD       N/A     53  45  74 E3        29.80F
RAPID CITY     CLEAR     46  44  93 NW5       29.86S
$$

REGIONAL REPORTS...WYOMING/IDAHO/WASHINGTON

CITY           SKY/WX    TMP DP  RH WIND       PRES   REMARKS
GILLETTE       CLOUDY    46  42  86 W9        29.90R
SHERIDAN       CLOUDY    50  45  83 SE6       29.89F
BUFFALO WY     RAIN      50  44  80 NW9       29.94S
CODY           CLOUDY    46  45  93 N3        29.93S
YELLOWSTONE LA   N/A     33  31  92 CALM      30.06S
IDAHO FALLS    CLEAR     47  35  63 W6        29.98R
SALMON         CLOUDY    50  37  62 E5        29.99R
BOISE          CLEAR     53  30  41 W8        29.99R
SPOKANE        PTCLDY    48  32  53 S7        29.98S
$$

REGIONAL REPORTS...ALBERTA

CITY           SKY/WX    TMP DP  RH WIND       PRES   REMARKS
EDMONTON       CLOUDY    50  45  81 W7        29.81R
CALGARY        PTCLDY    43  39  87 NW3       29.87R
LETHBRIDGE     CLEAR     43  34  70 SW10      29.88S
MEDICINE HAT   CLOUDY    52  39  62 SW8       29.85S
WATERTON GATE    N/A     45  28  53 SW16G28     N/A
MILK RIVER       N/A     41  34  75 W12         N/A
ONEFOUR          N/A     52  48  87 NW7         N/A
$$

REGIONAL REPORTS...SASKATCHEWAN

CITY           SKY/WX    TMP DP  RH WIND       PRES   REMARKS
SWIFT CURRENT  CLOUDY    54  50  87 W5        29.87R
REGINA         PTCLDY    52  48  87 E9        29.92S
SASKATOON      PTCLDY    57  50  77 SE12      29.90F
VAL MARIE        N/A     54  50  87 NE2         N/A
ROCKGLEN         N/A     50  48  93 E8          N/A
ASSINIBOIA       N/A     52  52 100 S5          N/A
$$




USA.gov is the U.S. government's official web portal to all federal, state and local government web resources and services.